• Join FlightAware (Why Join?)
  • Login
  • US Flag 
08:43AM EDT


 

Airport Tracker/Info


-or-


 

Live Flight TrackerFlight Track Log ✈ N80KW ✈ 06-Oct-2012 ✈ KMKC - KBHM

Flight Track Log - Related Links

Times and Time Zones

All times are in EDT time to prevent confusion due to time zone crossing. See the N80KW flight status page for this flight to view local times or setup timezone preferences in your user account.

Time Position Orientation Groundspeed Altitude Reporting Facility
EDT Latitude Longitude Course Direction KTS MPH feet Rate Location/Type
10:18AM 39.1500 -94.5833 90° East 116 133 1,500  Level Kansas City TRACON
10:18AM 39.1500 -94.5667 67° East 124 143 1,900 840 Climbing Kansas City TRACON
10:19AM 39.1667 -94.5167 11° North 141 162 2,700 840 Climbing Kansas City TRACON
10:20AM 39.1781 -94.5139 66° East 133 153 2,900 720 Climbing Kansas City Center
10:21AM 39.1931 -94.4714 121° Southeast 135 155 3,700 780 Climbing Kansas City Center
10:22AM 39.1717 -94.4258 108° East 151 174 4,500 780 Climbing Kansas City Center
10:23AM 39.1572 -94.3694 107° East 149 171 5,400 780 Climbing Kansas City Center
10:24AM 39.1456 -94.3208 109° East 148 170 6,200 780 Climbing Kansas City Center
10:25AM 39.1306 -94.2647 108° East 148 170 7,000 720 Climbing Kansas City Center
10:26AM 39.1189 -94.2175 108° East 145 167 7,700 660 Climbing Kansas City Center
10:27AM 39.1064 -94.1686 124° Southeast 148 170 8,400 600 Climbing Kansas City Center
10:28AM 39.0819 -94.1225 160° South 153 176 9,000 300 Climbing Kansas City Center
10:29AM 39.0403 -94.1031 158° South 172 198 9,100  Climbing Kansas City Center
10:30AM 38.9933 -94.0789 160° South 173 199 9,100  Level Kansas City Center
10:31AM 38.9492 -94.0583 162° South 170 196 9,100  Level Kansas City Center
10:32AM 38.9022 -94.0386 136° Southeast 176 203 9,100  Level Kansas City Center
10:33AM 38.8639 -93.9917 129° Southeast 179 206 9,100  Level Kansas City Center
10:34AM 38.8311 -93.9406 128° Southeast 175 201 9,100  Level Kansas City Center
10:35AM 38.8003 -93.8906 127° Southeast 178 205 9,100  Level Kansas City Center
10:36AM 38.7706 -93.8403 129° Southeast 177 204 9,100  Level Kansas City Center
10:37AM 38.7378 -93.7875 131° Southeast 177 204 9,100 -60 Level Kansas City Center
10:38AM 38.7053 -93.7394 129° Southeast 177 204 9,000 -60 Descending Kansas City Center
10:39AM 38.6747 -93.6906 132° Southeast 175 201 9,000  Level Kansas City Center
10:40AM 38.6422 -93.6442 129° Southeast 175 201 9,000  Level Kansas City Center
10:41AM 38.6114 -93.5961 130° Southeast 175 201 9,000  Level Kansas City Center
10:42AM 38.5794 -93.5478 132° Southeast 176 203 9,000  Level Kansas City Center
10:43AM 38.5469 -93.5011 131° Southeast 176 203 9,000  Level Kansas City Center
10:44AM 38.5150 -93.4533 130° Southeast 176 203 9,000  Level Kansas City Center
10:45AM 38.4769 -93.3953 129° Southeast 177 204 9,000  Level Kansas City Center
10:46AM 38.4458 -93.3469 132° Southeast 176 203 9,100  Climbing Kansas City Center
10:47AM 38.4131 -93.3003 131° Southeast 175 201 9,100  Level Kansas City Center
10:48AM 38.3814 -93.2536 130° Southeast 174 200 9,100  Level Kansas City Center
10:49AM 38.3506 -93.2061 131° Southeast 174 200 9,100  Level Kansas City Center
10:50AM 38.3189 -93.1589 131° Southeast 174 200 9,100  Level Kansas City Center
10:51AM 38.2867 -93.1119 130° Southeast 175 201 9,100  Level Kansas City Center
10:52AM 38.2553 -93.0647 131° Southeast 174 200 9,200  Climbing Kansas City Center
10:53AM 38.2228 -93.0164 131° Southeast 177 204 9,100 -300 Descending Kansas City Center
10:54AM 38.1825 -92.9581 132° Southeast 181 208 8,700 -480 Descending Kansas City Center
10:55AM 38.1486 -92.9094 131° Southeast 183 211 8,200 -480 Descending Kansas City Center
10:56AM 38.1161 -92.8617 131° Southeast 179 206 7,800 -480 Descending Kansas City Center
10:57AM 38.0836 -92.8139 131° Southeast 179 206 7,300 -420 Descending Kansas City Center
10:59AM 38.0511 -92.7661 131° Southeast 179 206 7,000 -120 Descending Kansas City Center
11:00AM 38.0192 -92.7197 131° Southeast 175 201 7,100  Climbing Kansas City Center
11:01AM 37.9875 -92.6728 131° Southeast 175 201 7,100  Level Kansas City Center
11:02AM 37.9553 -92.6253 131° Southeast 177 204 7,100 -60 Level Kansas City Center
11:03AM 37.9164 -92.5689 131° Southeast 177 204 7,000 -60 Descending Kansas City Center
11:04AM 37.8844 -92.5228 132° Southeast 176 203 7,000  Level Kansas City Center
11:05AM 37.8519 -92.4767 130° Southeast 177 204 7,000  Level Kansas City Center
11:06AM 37.8197 -92.4289 131° Southeast 179 206 7,000  Level Kansas City Center
11:07AM 37.7869 -92.3819 131° Southeast 179 206 7,000  Level Kansas City Center
11:08AM 37.7542 -92.3350 131° Southeast 179 206 7,000  Level Kansas City Center
11:09AM 37.7158 -92.2789 131° Southeast 177 204 7,000  Level Kansas City Center
11:10AM 37.6836 -92.2325 131° Southeast 176 203 7,000  Level Kansas City Center
11:11AM 37.6522 -92.1875 131° Southeast 174 200 7,000  Level Kansas City Center
11:12AM 37.6211 -92.1425 131° Southeast 171 197 7,000  Level Kansas City Center
11:13AM 37.5897 -92.0972 132° Southeast 171 197 7,000  Level Kansas City Center
11:14AM 37.5581 -92.0522 131° Southeast 171 197 7,000  Level Kansas City Center
11:15AM 37.5267 -92.0064 133° Southeast 172 198 7,000  Level Kansas City Center
11:16AM 37.4944 -91.9622 131° Southeast 171 197 7,000  Level Kansas City Center
11:17AM 37.4564 -91.9072 131° Southeast 172 198 7,000  Level Kansas City Center
11:18AM 37.4253 -91.8628 131° Southeast 171 197 7,000  Level Kansas City Center
11:19AM 37.3939 -91.8175 131° Southeast 171 197 7,000  Level Kansas City Center
11:20AM 37.3619 -91.7719 133° Southeast 172 198 7,000  Level Kansas City Center
11:21AM 37.3297 -91.7283 132° Southeast 171 197 7,000  Level Kansas City Center
11:22AM 37.2978 -91.6836 131° Southeast 171 197 7,000  Level Kansas City Center
11:23AM 37.2672 -91.6392 131° Southeast 169 194 7,000  Level Kansas City Center
11:24AM 37.2300 -91.5856 132° Southeast 169 194 7,000  Level Kansas City Center
11:25AM 37.1986 -91.5414 132° Southeast 169 194 7,000  Level Kansas City Center
11:26AM 37.1667 -91.4961 132° Southeast 172 198 7,000  Level Kansas City Center
11:27AM 37.1347 -91.4511 132° Southeast 172 198 7,000  Level Kansas City Center
11:28AM 37.1019 -91.4058 132° Southeast 173 199 7,000 -180 Level Kansas City Center
11:29AM 37.0697 -91.3606 133° Southeast 174 200 6,700 -180 Descending Kansas City Center
11:30AM 37.0372 -91.3172 131° Southeast 172 198 6,700  Level Kansas City Center
11:31AM 37.0058 -91.2714 132° Southeast 172 198 6,700  Level Kansas City Center
11:33AM 36.9667 -91.2172 133° Southeast 173 199 6,700  Level Kansas City Center
11:34AM 36.9342 -91.1731 132° Southeast 173 199 6,700  Level Kansas City Center
11:35AM 36.9019 -91.1278 137° Southeast 173 199 6,800 120 Climbing Kansas City Center
11:36AM 36.8631 -91.0831 129° Southeast 171 197 7,000 60 Climbing Memphis Center
11:37AM 36.8342 -91.0386 128° Southeast 171 197 7,000  Level Memphis Center
11:38AM 36.8053 -90.9917 135° Southeast 166 191 7,000  Level Memphis Center
11:39AM 36.7722 -90.9500 131° Southeast 166 191 7,000  Level Memphis Center
11:40AM 36.7411 -90.9058 131° Southeast 166 191 7,000  Level Memphis Center
11:41AM 36.7100 -90.8617 135° Southeast 171 197 7,000  Level Memphis Center
11:42AM 36.6769 -90.8200 129° Southeast 171 197 7,000  Level Memphis Center
11:43AM 36.6478 -90.7758 131° Southeast 166 191 7,100  Climbing Memphis Center
11:44AM 36.6167 -90.7317 135° Southeast 171 197 7,000 -60 Descending Memphis Center
11:45AM 36.5833 -90.6903 121° Southeast 171 197 7,000  Level Memphis Center
11:46AM 36.5606 -90.6436 141° Southeast 166 191 7,000  Level Memphis Center
11:47AM 36.5192 -90.6022 130° Southeast 166 191 7,000  Level Memphis Center
11:48AM 36.4900 -90.5583 132° Southeast 171 197 7,000  Level Memphis Center
11:49AM 36.4586 -90.5144 135° Southeast 171 197 7,100  Climbing Memphis Center
11:50AM 36.4253 -90.4731 131° Southeast 171 197 7,100 -60 Level Memphis Center
11:51AM 36.3942 -90.4292 132° Southeast 171 197 7,000  Descending Memphis Center
11:52AM 36.3628 -90.3853 131° Southeast 171 197 7,100  Climbing Memphis Center
11:53AM 36.3317 -90.3414 133° Southeast 171 197 7,000 -60 Descending Memphis Center
11:54AM 36.2983 -90.2978 132° Southeast 171 197 7,000  Level Memphis Center
11:55AM 36.2669 -90.2539 133° Southeast 171 197 7,000  Level Memphis Center
11:56AM 36.2356 -90.2128 131° Southeast 171 197 7,000  Level Memphis Center
11:57AM 36.2044 -90.1692 134° Southeast 171 197 7,000  Level Memphis Center
11:58AM 36.1708 -90.1256 133° Southeast 171 197 7,000  Level Memphis Center
11:59AM 36.1394 -90.0844 132° Southeast 171 197 7,000  Level Memphis Center
12:00PM 36.1081 -90.0408 132° Southeast 171 197 7,000  Level Memphis Center
12:01PM 36.0767 -89.9975 132° Southeast 171 197 7,100  Climbing Memphis Center
12:02PM 36.0453 -89.9539 135° Southeast 171 197 7,100 -60 Level Memphis Center
12:03PM 36.0119 -89.9131 130° Southeast 171 197 7,000  Descending Memphis Center
12:04PM 35.9803 -89.8669 132° Southeast 171 197 7,100 -60 Climbing Memphis Center
12:05PM 35.9489 -89.8236 134° Southeast 171 197 6,900 -60 Descending Memphis Center
12:06PM 35.9153 -89.7803 132° Southeast 171 197 7,000 60 Climbing Memphis Center
12:07PM 35.8817 -89.7344 134° Southeast 171 197 7,100  Climbing Memphis Center
12:08PM 35.8481 -89.6911 133° Southeast 171 197 7,000  Descending Memphis Center
12:09PM 35.8208 -89.6556 129° Southeast 171 197 7,100  Climbing Memphis Center
12:10PM 35.7872 -89.6047 135° Southeast 171 197 7,000  Descending Memphis Center
12:11PM 35.7453 -89.5539 132° Southeast 181 208 7,100  Climbing Memphis Center
12:12PM 35.7114 -89.5081 128° Southeast 181 208 7,100  Level Memphis Center
12:13PM 35.6842 -89.4650 136° Southeast 181 208 7,100  Level Memphis Center
12:14PM 35.6483 -89.4219 134° Southeast 176 203 7,100 -60 Level Memphis Center
12:15PM 35.6147 -89.3789 133° Southeast 181 208 7,000 -60 Descending Memphis Center
12:16PM 35.5744 -89.3258 132° Southeast 181 208 7,000  Level Memphis Center
12:17PM 35.5386 -89.2778 131° Southeast 181 208 7,000  Level Memphis Center
12:18PM 35.5028 -89.2272 134° Southeast 186 214 7,000  Level Memphis Center
12:19PM 35.4669 -89.1819 132° Southeast 186 214 7,000  Level Memphis Center
12:20PM 35.4311 -89.1339 133° Southeast 186 214 7,100  Climbing Memphis Center
12:21PM 35.3950 -89.0861 133° Southeast 186 214 7,100  Level Memphis Center
12:22PM 35.3569 -89.0358 134° Southeast 186 214 7,100  Level Memphis Center
12:23PM 35.3211 -88.9906 133° Southeast 188 216 7,100  Level Memphis Center
12:24PM 35.2872 -88.9453 133° Southeast 193 222 7,100  Level Memphis Center
12:25PM 35.2489 -88.8950 133° Southeast 193 222 7,100  Level Memphis Center
12:26PM 35.2108 -88.8450 134° Southeast 198 228 7,100  Level Memphis Center
12:27PM 35.1728 -88.7972 133° Southeast 198 228 7,100  Level Memphis Center
12:28PM 35.1367 -88.7497 133° Southeast 193 222 7,100  Level Memphis Center
12:29PM 35.0964 -88.6972 133° Southeast 193 222 7,100  Level Memphis Center
12:30PM 35.0581 -88.6472 136° Southeast 200 230 7,100  Level Memphis Center
12:31PM 35.0242 -88.6075 132° Southeast 195 224 7,100  Level Memphis Center
12:32PM 34.9836 -88.5525 131° Southeast 195 224 7,100  Level Memphis Center
12:33PM 34.9497 -88.5050 138° Southeast 195 224 7,100  Level Memphis Center
12:34PM 34.9094 -88.4603 133° Southeast 195 224 7,100  Level Memphis Center
12:35PM 34.8731 -88.4131 135° Southeast 195 224 7,100  Level Memphis Center
12:36PM 34.8369 -88.3683 132° Southeast 195 224 7,100  Level Memphis Center
12:37PM 34.8006 -88.3186 136° Southeast 200 230 7,100  Level Memphis Center
12:38PM 34.7644 -88.2767 133° Southeast 190 219 7,100  Level Memphis Center
12:39PM 34.7325 -88.2344 133° Southeast 190 219 7,100  Level Memphis Center
12:40PM 34.6961 -88.1872 135° Southeast 190 219 7,100 -60 Level Memphis Center
12:41PM 34.6600 -88.1428 132° Southeast 190 219 7,000 -60 Descending Memphis Center
12:42PM 34.6236 -88.0933 135° Southeast 190 219 7,000  Level Memphis Center
12:43PM 34.5872 -88.0489 133° Southeast 190 219 7,000  Level Memphis Center
12:44PM 34.5508 -88.0019 133° Southeast 190 219 7,000  Level Memphis Center
12:45PM 34.5144 -87.9550 135° Southeast 190 219 7,000  Level Memphis Center
12:46PM 34.4739 -87.9058 133° Southeast 190 219 7,000  Level Memphis Center
12:47PM 34.4375 -87.8589 133° Southeast 190 219 7,000  Level Memphis Center
12:48PM 34.4011 -87.8122 135° Southeast 190 219 7,000  Level Memphis Center
12:49PM 34.3647 -87.7681 133° Southeast 190 219 7,000  Level Memphis Center
12:50PM 34.3283 -87.7214 135° Southeast 190 219 7,000  Level Memphis Center
12:51PM 34.2897 -87.6747 133° Southeast 190 219 7,000  Level Memphis Center
12:52PM 34.2533 -87.6281 134° Southeast 190 219 7,000  Level Memphis Center
12:53PM 34.2167 -87.5817 133° Southeast 190 219 7,000  Level Memphis Center
12:54PM 34.1822 -87.5375 135° Southeast 190 219 7,000 -60 Level Memphis Center
12:55PM 34.1222 -87.4639 133° Southeast 187 215 6,900 -60 Descending Atlanta Center
12:56PM 34.0900 -87.4225 136° Southeast 188 216 6,900  Level Atlanta Center
12:57PM 34.0517 -87.3783 133° Southeast 188 216 6,900 -120 Level Atlanta Center
12:58PM 34.0172 -87.3344 152° Southeast 185 213 6,700 -360 Descending Atlanta Center
12:59PM 33.9681 -87.3025 146° Southeast 184 212 6,200 -480 Descending Atlanta Center
01:00PM 33.9253 -87.2683 150° Southeast 180 207 5,800 -480 Descending Atlanta Center
01:01PM 33.8842 -87.2392 151° Southeast 178 205 5,300 -420 Descending Atlanta Center
01:02PM 33.8411 -87.2100 147° Southeast 173 199 5,000 -180 Descending Atlanta Center
01:03PM 33.8042 -87.1811 152° Southeast 165 190 5,000 -120 Level Atlanta Center
01:04PM 33.7631 -87.1547 153° Southeast 166 191 4,800 -360 Descending Atlanta Center
01:05PM 33.7200 -87.1281 146° Southeast 168 193 4,300 -540 Descending Atlanta Center
01:06PM 33.6811 -87.0969 150° Southeast 169 194 3,800 -480 Descending Atlanta Center
01:07PM 33.6361 -87.0653 146° Southeast 167 192 3,300 -480 Descending Atlanta Center
01:08PM 33.5972 -87.0342 148° Southeast 164 189 2,900 -240 Descending Atlanta Center
01:09PM 33.5622 -87.0078 147° Southeast 153 176 2,900  Level Atlanta Center
01:10PM 33.5294 -86.9819 145° Southeast 138 159 2,900  Level Atlanta Center
01:11PM 33.5008 -86.9583 136° Southeast 126 145 2,900  Level Atlanta Center
01:13PM 33.4744 -86.9278 72° East 124 143 3,000 -120 Climbing Atlanta Center
01:14PM 33.4858 -86.8856 50° Northeast 136 157 2,700 -300 Descending Atlanta Center
01:15PM 33.5097 -86.8517 64° Northeast 124 143 2,500 -240 Descending Atlanta Center
01:16PM 33.5206 -86.8244 88° East 95 109 2,300 60 Descending Atlanta Center
01:17PM 33.5211 -86.8022 204° Southwest 84 97 2,700 -300 Climbing Atlanta Center
01:18PM 33.5169 -86.8044 204° Southwest 50 58 1,700 -1,020 Descending Atlanta Center